Location: ????????
(55.4000°N, 39.1167°E)
Time: 02:51:01
(UTC+00:00)

Cosmos 2333 Rocket - Pass Details

Date: 19 May 2025
Orbit: 840 x 862 km, 70.8° (Epoch: 15 June)

Event Time Altitude Azimuth Distance (km) Brightness Sun altitude
Rises 20:21:04 0° 325° (NW) 3,445 6.8 -13.6°
Reaches altitude 10° 20:23:33 10° 326° (NNW) 2,503 5.9 -13.7°
Maximum altitude 20:29:20 80° 54° (NE) 874 2.3 -13.9°
Enters shadow 20:33:54 16° 141° (SE) 2,056 3.7 -14.0°
